^^
Your Local Weather - Clay, NY Station Historical Data
Daily Summary for January 24, 2018 Units:  Metric    English   Both
« Previous Day
Next Day »
Daily Weekly Monthly Yearly Custom
  High: Low: Average:
Temperature: 0.2 °C -7.5 °C -5.6 °C
Dew Point: -1.6 °C -10.7 °C -8.4 °C
Humidity: 88% 73% 80%
Wind Speed: 12.9km/h 0km/h 5.8km/h
Wind Gust: 24.1km/h - -
Wind- - WNW
Pressure: 1023.6 hPa 1004.6 hPa -
Precipitation: 0 mm    
Historical Graphs
 
 
Tabular Data for January 24, 2018
Time Temperature Dew Point Pressure Wind Wind Speed Wind Gust Humidity Rainfall Rate (Hourly) solar
00:02 0.2 °C -1.6 °C 1004.6 hPa NW 9.7 km/h 12.9 km/h 88% 0 mm 0 W/m2
00:08 0.2 °C -1.7 °C 1005 hPa WNW 11.3 km/h 20.9 km/h 87% 0 mm 0 W/m2
00:14 0.1 °C -1.9 °C 1005 hPa West 12.9 km/h 14.5 km/h 86% 0 mm 0 W/m2
00:20 0.1 °C -2.2 °C 1005.3 hPa NW 11.3 km/h 22.5 km/h 85% 0 mm 0 W/m2
00:26 0 °C -2.4 °C 1005.3 hPa WNW 12.9 km/h 22.5 km/h 84% 0 mm 0 W/m2
00:32 -0.1 °C -2.4 °C 1005.3 hPa WNW 9.7 km/h 11.3 km/h 84% 0 mm 0 W/m2
00:38 -0.2 °C -2.6 °C 1005.6 hPa WNW 9.7 km/h 19.3 km/h 84% 0 mm 0 W/m2
00:44 -0.3 °C -2.7 °C 1005.6 hPa NNW 11.3 km/h 19.3 km/h 84% 0 mm 0 W/m2
00:50 -0.4 °C -2.8 °C 1005.6 hPa WNW 11.3 km/h 11.3 km/h 84% 0 mm 0 W/m2
00:56 -0.5 °C -2.9 °C 1005.6 hPa WNW 9.7 km/h 24.1 km/h 84% 0 mm 0 W/m2
01:02 -0.6 °C -3 °C 1006 hPa West 11.3 km/h 17.7 km/h 84% 0 mm 0 W/m2
01:08 -0.7 °C -3.1 °C 1006.3 hPa WNW 11.3 km/h 17.7 km/h 84% 0 mm 0 W/m2
01:20 -0.8 °C -3.3 °C 1006.3 hPa West 11.3 km/h 11.3 km/h 83% 0 mm 0 W/m2
01:26 -0.9 °C -3.6 °C 1006.7 hPa WNW 11.3 km/h 16.1 km/h 82% 0 mm 0 W/m2
01:32 -0.9 °C -3.8 °C 1007 hPa West 12.9 km/h 12.9 km/h 81% 0 mm 0 W/m2
01:38 -1.1 °C -3.9 °C 1007 hPa NW 11.3 km/h 16.1 km/h 81% 0 mm 0 W/m2
01:44 -1.2 °C -3.9 °C 1007 hPa West 11.3 km/h 14.5 km/h 82% 0 mm 0 W/m2
01:50 -1.3 °C -4 °C 1007.3 hPa SSW 11.3 km/h 11.3 km/h 82% 0 mm 0 W/m2
01:56 -1.4 °C -3.9 °C 1007.3 hPa NW 8 km/h 16.1 km/h 83% 0 mm 0 W/m2
02:02 -1.5 °C -4 °C 1007.7 hPa WNW 9.7 km/h 9.7 km/h 83% 0 mm 0 W/m2
02:08 -1.6 °C -3.9 °C 1008 hPa West 8 km/h 16.1 km/h 84% 0 mm 0 W/m2
02:14 -1.7 °C -3.8 °C 1008 hPa WNW 8 km/h 11.3 km/h 85% 0 mm 0 W/m2
02:20 -1.7 °C -3.9 °C 1008.4 hPa WNW 8 km/h 8 km/h 85% 0 mm 0 W/m2
02:32 -1.8 °C -4 °C 1008.7 hPa NW 11.3 km/h 14.5 km/h 85% 0 mm 0 W/m2
02:38 -1.9 °C -4.1 °C 1009 hPa WNW 9.7 km/h 14.5 km/h 85% 0 mm 0 W/m2
02:44 -2 °C -4.3 °C 1009 hPa West 8 km/h 9.7 km/h 84% 0 mm 0 W/m2
02:50 -2.1 °C -4.4 °C 1009 hPa NNW 11.3 km/h 11.3 km/h 84% 0 mm 0 W/m2
02:56 -2.2 °C -4.7 °C 1009.4 hPa West 12.9 km/h 14.5 km/h 83% 0 mm 0 W/m2
03:02 -2.2 °C -4.7 °C 1009 hPa West 11.3 km/h 12.9 km/h 83% 0 mm 0 W/m2
03:08 -2.3 °C -4.6 °C 1009.4 hPa West 9.7 km/h 12.9 km/h 84% 0 mm 0 W/m2
03:14 -2.3 °C -4.5 °C 1009.7 hPa NW 8 km/h 16.1 km/h 85% 0 mm 0 W/m2
03:20 -2.6 °C -4.7 °C 1009.7 hPa WNW 8 km/h 8 km/h 85% 0 mm 0 W/m2
03:26 -2.7 °C -4.7 °C 1009.7 hPa NW 8 km/h 9.7 km/h 86% 0 mm 0 W/m2
03:44 -2.9 °C -5.1 °C 1010 hPa WNW 9.7 km/h 19.3 km/h 85% 0 mm 0 W/m2
03:50 -2.9 °C -5.3 °C 1010 hPa West 9.7 km/h 12.9 km/h 84% 0 mm 0 W/m2
03:56 -3.1 °C -5.4 °C 1010.4 hPa WNW 11.3 km/h 12.9 km/h 84% 0 mm 0 W/m2
04:02 -3.2 °C -5.6 °C 1010.4 hPa NW 9.7 km/h 11.3 km/h 84% 0 mm 0 W/m2
04:08 -3.3 °C -5.8 °C 1010.4 hPa WNW 9.7 km/h 14.5 km/h 83% 0 mm 0 W/m2
04:20 -3.3 °C -6.1 °C 1010.7 hPa WNW 11.3 km/h 11.3 km/h 81% 0 mm 0 W/m2
04:32 -3.3 °C -6.3 °C 1010.7 hPa West 11.3 km/h 16.1 km/h 80% 0 mm 0 W/m2
04:38 -3.4 °C -6.3 °C 1011.1 hPa NW 11.3 km/h 16.1 km/h 80% 0 mm 0 W/m2
04:44 -3.4 °C -6.6 °C 1011.1 hPa WNW 11.3 km/h 14.5 km/h 79% 0 mm 0 W/m2
04:50 -3.5 °C -6.6 °C 1011.4 hPa West 12.9 km/h 12.9 km/h 79% 0 mm 0 W/m2
04:56 -3.6 °C -6.6 °C 1011.7 hPa NW 11.3 km/h 14.5 km/h 80% 0 mm 0 W/m2
05:02 -3.7 °C -6.7 °C 1011.7 hPa West 9.7 km/h 12.9 km/h 80% 0 mm 0 W/m2
05:08 -3.8 °C -6.9 °C 1012.1 hPa WNW 9.7 km/h 12.9 km/h 79% 0 mm 0 W/m2
05:14 -3.8 °C -6.9 °C 1012.1 hPa WNW 8 km/h 9.7 km/h 79% 0 mm 0 W/m2
05:20 -3.9 °C -7.1 °C 1012.4 hPa NNW 9.7 km/h 9.7 km/h 79% 0 mm 0 W/m2
05:26 -4.1 °C -7.2 °C 1012.4 hPa WNW 11.3 km/h 17.7 km/h 79% 0 mm 0 W/m2
05:32 -4.2 °C -7.3 °C 1012.4 hPa West 11.3 km/h 11.3 km/h 79% 0 mm 0 W/m2
05:38 -4.2 °C -7.2 °C 1012.8 hPa WNW 9.7 km/h 11.3 km/h 80% 0 mm 0 W/m2
05:44 -4.2 °C -7.2 °C 1012.8 hPa NW 8 km/h 9.7 km/h 80% 0 mm 0 W/m2
05:50 -4.4 °C -7.3 °C 1012.8 hPa WNW 9.7 km/h 9.7 km/h 80% 0 mm 0 W/m2
05:56 -4.6 °C -7.5 °C 1013.1 hPa West 9.7 km/h 12.9 km/h 80% 0 mm 0 W/m2
06:02 -4.6 °C -7.6 °C 1013.4 hPa WNW 8 km/h 9.7 km/h 80% 0 mm 0 W/m2
06:08 -4.7 °C -7.5 °C 1013.4 hPa WNW 9.7 km/h 11.3 km/h 81% 0 mm 0 W/m2
06:14 -4.8 °C -7.6 °C 1013.4 hPa WNW 9.7 km/h 16.1 km/h 81% 0 mm 0 W/m2
06:20 -4.8 °C -7.4 °C 1013.8 hPa NW 8 km/h 8 km/h 82% 0 mm 0 W/m2
06:26 -4.9 °C -7.5 °C 1013.8 hPa NW 8 km/h 12.9 km/h 82% 0 mm 0 W/m2
06:32 -4.9 °C -7.5 °C 1014.1 hPa NW 8 km/h 8 km/h 82% 0 mm 0 W/m2
06:38 -5 °C -7.6 °C 1014.1 hPa NW 8 km/h 9.7 km/h 82% 0 mm 0 W/m2
06:44 -5.1 °C -7.7 °C 1014.4 hPa NW 6.4 km/h 9.7 km/h 82% 0 mm 0 W/m2
06:50 -5.2 °C -7.8 °C 1014.4 hPa NNW 8 km/h 8 km/h 82% 0 mm 0 W/m2
06:56 -5.2 °C -7.7 °C 1014.4 hPa WNW 6.4 km/h 8 km/h 83% 0 mm 0 W/m2
07:02 -5.3 °C -7.7 °C 1014.4 hPa WNW 6.4 km/h 9.7 km/h 83% 0 mm 0 W/m2
07:08 -5.3 °C -7.8 °C 1014.8 hPa NW 8 km/h 16.1 km/h 83% 0 mm 0 W/m2
07:14 -5.4 °C -7.8 °C 1014.8 hPa NW 8 km/h 11.3 km/h 83% 0 mm 0 W/m2
07:20 -5.4 °C -7.8 °C 1015.1 hPa North 6.4 km/h 6.4 km/h 83% 0 mm 0 W/m2
07:26 -5.4 °C -7.9 °C 1015.1 hPa WNW 6.4 km/h 9.7 km/h 83% 0 mm 0 W/m2
07:32 -5.4 °C -7.9 °C 1015.1 hPa NNW 4.8 km/h 8 km/h 83% 0 mm 0 W/m2
07:38 -5.6 °C -8 °C 1015.5 hPa WNW 8 km/h 9.7 km/h 83% 0 mm 0 W/m2
07:44 -5.7 °C -8.1 °C 1015.5 hPa NW 8 km/h 8 km/h 83% 0 mm 0 W/m2
07:50 -5.8 °C -8.3 °C 1015.5 hPa West 8 km/h 9.7 km/h 82% 0 mm 0 W/m2
07:56 -5.8 °C -8.4 °C 1015.8 hPa North 8 km/h 12.9 km/h 82% 0 mm 5 W/m2
08:02 -5.8 °C -8.4 °C 1015.8 hPa NNW 8 km/h 9.7 km/h 82% 0 mm 5 W/m2
08:08 -5.9 °C -8.4 °C 1016.1 hPa NW 8 km/h 12.9 km/h 82% 0 mm 7 W/m2
08:14 -5.9 °C -8.4 °C 1016.5 hPa NW 6.4 km/h 8 km/h 82% 0 mm 7 W/m2
08:20 -5.9 °C -8.7 °C 1016.5 hPa WNW 6.4 km/h 6.4 km/h 81% 0 mm 11 W/m2
08:26 -6 °C -8.6 °C 1016.5 hPa NW 6.4 km/h 9.7 km/h 82% 0 mm 14 W/m2
08:32 -6.1 °C -8.6 °C 1016.5 hPa NW 6.4 km/h 8 km/h 82% 0 mm 16 W/m2
08:38 -6.2 °C -8.6 °C 1016.8 hPa WNW 6.4 km/h 12.9 km/h 83% 0 mm 23 W/m2
08:44 -6.2 °C -8.5 °C 1016.8 hPa NNW 6.4 km/h 8 km/h 84% 0 mm 25 W/m2
08:50 -6.4 °C -8.7 °C 1017.2 hPa WNW 6.4 km/h 6.4 km/h 84% 0 mm 25 W/m2
08:56 -6.5 °C -8.6 °C 1017.2 hPa NW 6.4 km/h 9.7 km/h 85% 0 mm 28 W/m2
09:02 -6.6 °C -8.7 °C 1017.2 hPa WNW 6.4 km/h 8 km/h 85% 0 mm 28 W/m2
09:08 -6.6 °C -8.7 °C 1017.5 hPa NW 8 km/h 8 km/h 85% 0 mm 30 W/m2
09:14 -6.6 °C -8.6 °C 1017.5 hPa WNW 6.4 km/h 8 km/h 86% 0 mm 39 W/m2
09:20 -6.6 °C -8.5 °C 1017.5 hPa WNW 4.8 km/h 4.8 km/h 86% 0 mm 51 W/m2
09:26 -6.5 °C -8.4 °C 1017.5 hPa WNW 4.8 km/h 6.4 km/h 86% 0 mm 51 W/m2
09:32 -6.5 °C -8.4 °C 1017.5 hPa WNW 4.8 km/h 9.7 km/h 86% 0 mm 58 W/m2
09:38 -6.6 °C -8.5 °C 1017.8 hPa WNW 4.8 km/h 9.7 km/h 86% 0 mm 56 W/m2
09:44 -6.5 °C -8.3 °C 1017.8 hPa WNW 4.8 km/h 4.8 km/h 87% 0 mm 63 W/m2
09:50 -6.5 °C -8.4 °C 1017.8 hPa WNW 3.2 km/h 6.4 km/h 86% 0 mm 58 W/m2
10:02 -6.5 °C -8.4 °C 1018.2 hPa North 4.8 km/h 8 km/h 86% 0 mm 65 W/m2
10:08 -6.5 °C -8.4 °C 1018.2 hPa NW 4.8 km/h 11.3 km/h 86% 0 mm 63 W/m2
10:20 -6.9 °C -9 °C 1018.2 hPa NW 8 km/h 9.7 km/h 85% 0 mm 77 W/m2
10:26 -6.9 °C -9.1 °C 1018.2 hPa NW 6.4 km/h 12.9 km/h 85% 0 mm 74 W/m2
10:32 -6.9 °C -9.1 °C 1018.2 hPa NNW 6.4 km/h 8 km/h 85% 0 mm 84 W/m2
10:38 -6.9 °C -9 °C 1018.5 hPa WNW 6.4 km/h 8 km/h 85% 0 mm 97 W/m2
10:44 -7 °C -9.2 °C 1018.5 hPa NW 6.4 km/h 9.7 km/h 84% 0 mm 105 W/m2
10:50 -7 °C -9.4 °C 1018.5 hPa NW 8 km/h 8 km/h 83% 0 mm 120 W/m2
10:56 -6.9 °C -9.5 °C 1018.5 hPa NW 8 km/h 12.9 km/h 82% 0 mm 121 W/m2
11:02 -6.9 °C -9.7 °C 1018.5 hPa WNW 8 km/h 8 km/h 81% 0 mm 120 W/m2
11:08 -6.9 °C -9.8 °C 1018.5 hPa WNW 6.4 km/h 9.7 km/h 80% 0 mm 111 W/m2
11:14 -6.8 °C -9.7 °C 1018.8 hPa NW 6.4 km/h 8 km/h 80% 0 mm 132 W/m2
11:20 -6.8 °C -9.7 °C 1018.8 hPa WNW 4.8 km/h 4.8 km/h 80% 0 mm 141 W/m2
11:26 -6.7 °C -9.8 °C 1018.8 hPa WNW 4.8 km/h 9.7 km/h 79% 0 mm 156 W/m2
11:32 -6.8 °C -10 °C 1018.5 hPa NNW 6.4 km/h 6.4 km/h 78% 0 mm 167 W/m2
11:38 -6.8 °C -10 °C 1018.5 hPa NW 6.4 km/h 9.7 km/h 78% 0 mm 169 W/m2
11:44 -6.7 °C -9.9 °C 1018.5 hPa NNW 4.8 km/h 14.5 km/h 78% 0 mm 176 W/m2
11:50 -6.7 °C -10.1 °C 1018.5 hPa NNW 6.4 km/h 6.4 km/h 77% 0 mm 190 W/m2
11:56 -6.7 °C -10.2 °C 1018.5 hPa NW 6.4 km/h 8 km/h 76% 0 mm 188 W/m2
12:08 -6.8 °C -10.4 °C 1018.2 hPa NW 8 km/h 16.1 km/h 75% 0 mm 169 W/m2
12:20 -6.8 °C -10.7 °C 1018.2 hPa WNW 8 km/h 8 km/h 74% 0 mm 188 W/m2
12:26 -6.8 °C -10.7 °C 1018.5 hPa NNW 8 km/h 11.3 km/h 74% 0 mm 200 W/m2
12:32 -6.7 °C -10.6 °C 1018.5 hPa WNW 8 km/h 9.7 km/h 74% 0 mm 220 W/m2
12:38 -6.7 °C -10.7 °C 1018.5 hPa WNW 6.4 km/h 9.7 km/h 73% 0 mm 221 W/m2
12:44 -6.7 °C -10.7 °C 1018.5 hPa WNW 8 km/h 8 km/h 73% 0 mm 186 W/m2
12:50 -6.6 °C -10.7 °C 1018.5 hPa NW 6.4 km/h 6.4 km/h 73% 0 mm 171 W/m2
12:56 -6.6 °C -10.5 °C 1018.5 hPa NW 6.4 km/h 11.3 km/h 74% 0 mm 185 W/m2
13:08 -6.6 °C -10.7 °C 1018.5 hPa NW 6.4 km/h 11.3 km/h 73% 0 mm 174 W/m2
13:14 -6.6 °C -10.4 °C 1018.5 hPa NW 6.4 km/h 9.7 km/h 74% 0 mm 186 W/m2
13:20 -6.5 °C -10.4 °C 1018.5 hPa NNW 4.8 km/h 4.8 km/h 74% 0 mm 167 W/m2
13:26 -6.6 °C -10.4 °C 1018.5 hPa North 6.4 km/h 11.3 km/h 74% 0 mm 149 W/m2
13:32 -6.5 °C -10.4 °C 1018.5 hPa NNW 6.4 km/h 6.4 km/h 74% 0 mm 128 W/m2
13:38 -6.5 °C -10.4 °C 1018.8 hPa NNW 4.8 km/h 11.3 km/h 74% 0 mm 118 W/m2
13:44 -6.7 °C -10.4 °C 1018.8 hPa NW 6.4 km/h 6.4 km/h 75% 0 mm 118 W/m2
13:50 -6.7 °C -10.4 °C 1018.8 hPa WNW 6.4 km/h 6.4 km/h 75% 0 mm 116 W/m2
13:56 -6.7 °C -10.2 °C 1018.8 hPa WNW 4.8 km/h 6.4 km/h 76% 0 mm 123 W/m2
14:02 -6.6 °C -10.2 °C 1018.5 hPa NW 4.8 km/h 4.8 km/h 76% 0 mm 151 W/m2
14:08 -6.7 °C -10.4 °C 1018.5 hPa NNW 4.8 km/h 11.3 km/h 75% 0 mm 134 W/m2
14:14 -6.6 °C -10.2 °C 1018.8 hPa NNW 4.8 km/h 4.8 km/h 76% 0 mm 118 W/m2
14:20 -6.7 °C -10.2 °C 1018.8 hPa West 4.8 km/h 9.7 km/h 76% 0 mm 104 W/m2
14:26 -6.7 °C -10.2 °C 1018.8 hPa NW 4.8 km/h 9.7 km/h 76% 0 mm 105 W/m2
14:32 -6.8 °C -10.3 °C 1019.2 hPa WNW 4.8 km/h 4.8 km/h 76% 0 mm 102 W/m2
14:46 -6.8 °C -10.3 °C 1019.5 hPa NW 6.4 km/h 6.4 km/h 76% 0 mm 88 W/m2
14:52 -6.8 °C -10.3 °C 1019.5 hPa NW 4.8 km/h 6.4 km/h 76% 0 mm 86 W/m2
14:58 -6.8 °C -10.3 °C 1019.5 hPa NNW 6.4 km/h 11.3 km/h 76% 0 mm 84 W/m2
15:10 -6.8 °C -10.5 °C 1019.9 hPa NW 4.8 km/h 6.4 km/h 75% 0 mm 77 W/m2
15:16 -6.8 °C -10.5 °C 1019.9 hPa WNW 6.4 km/h 6.4 km/h 75% 0 mm 81 W/m2
15:22 -6.8 °C -10.5 °C 1019.9 hPa NW 4.8 km/h 6.4 km/h 75% 0 mm 81 W/m2
15:28 -6.8 °C -10.5 °C 1019.9 hPa NW 6.4 km/h 6.4 km/h 75% 0 mm 84 W/m2
15:34 -6.8 °C -10.4 °C 1019.9 hPa WNW 4.8 km/h 6.4 km/h 75% 0 mm 72 W/m2
15:40 -6.8 °C -10.3 °C 1020.2 hPa NW 4.8 km/h 6.4 km/h 76% 0 mm 70 W/m2
15:46 -6.8 °C -10.3 °C 1020.2 hPa WNW 4.8 km/h 9.7 km/h 76% 0 mm 51 W/m2
15:52 -6.8 °C -10.3 °C 1020.2 hPa WNW 4.8 km/h 4.8 km/h 76% 0 mm 47 W/m2
15:58 -6.9 °C -10.6 °C 1020.2 hPa WNW 4.8 km/h 9.7 km/h 75% 0 mm 44 W/m2
16:04 -6.9 °C -10.6 °C 1020.2 hPa WNW 6.4 km/h 9.7 km/h 75% 0 mm 39 W/m2
16:10 -6.9 °C -10.6 °C 1020.5 hPa West 4.8 km/h 4.8 km/h 75% 0 mm 33 W/m2
16:16 -6.8 °C -10.5 °C 1020.5 hPa WNW 4.8 km/h 6.4 km/h 75% 0 mm 26 W/m2
16:22 -6.8 °C -10.3 °C 1020.5 hPa NW 4.8 km/h 4.8 km/h 76% 0 mm 32 W/m2
16:28 -6.8 °C -10.5 °C 1020.5 hPa WNW 4.8 km/h 4.8 km/h 75% 0 mm 26 W/m2
16:34 -6.8 °C -10.3 °C 1020.5 hPa WNW 4.8 km/h 6.4 km/h 76% 0 mm 21 W/m2
16:40 -6.9 °C -10.4 °C 1020.9 hPa NW 4.8 km/h 8 km/h 76% 0 mm 14 W/m2
16:46 -6.9 °C -10.3 °C 1020.9 hPa NW 4.8 km/h 8 km/h 77% 0 mm 12 W/m2
16:52 -6.9 °C -10.3 °C 1020.9 hPa NW 3.2 km/h 8 km/h 77% 0 mm 7 W/m2
16:58 -6.9 °C -10.3 °C 1020.9 hPa WNW 4.8 km/h 8 km/h 77% 0 mm 0 W/m2
17:04 -6.9 °C -10.3 °C 1021.2 hPa WNW 3.2 km/h 4.8 km/h 77% 0 mm 0 W/m2
17:10 -7 °C -10.3 °C 1021.2 hPa NW 1.6 km/h 1.6 km/h 77% 0 mm 0 W/m2
17:16 -6.9 °C -10.3 °C 1021.6 hPa West 3.2 km/h 4.8 km/h 77% 0 mm 0 W/m2
17:22 -6.9 °C -10.3 °C 1021.6 hPa NNW 3.2 km/h 3.2 km/h 77% 0 mm 0 W/m2
17:28 -6.9 °C -10.3 °C 1021.6 hPa NNW 3.2 km/h 3.2 km/h 77% 0 mm 0 W/m2
17:34 -6.9 °C -10.3 °C 1021.6 hPa NW 3.2 km/h 4.8 km/h 77% 0 mm 0 W/m2
17:40 -6.9 °C -10.3 °C 1021.6 hPa NW 3.2 km/h 3.2 km/h 77% 0 mm 0 W/m2
17:46 -6.9 °C -10.1 °C 1021.9 hPa NW 3.2 km/h 3.2 km/h 78% 0 mm 0 W/m2
17:52 -6.9 °C -10.1 °C 1021.9 hPa NW 1.6 km/h 3.2 km/h 78% 0 mm 0 W/m2
17:58 -6.8 °C -10 °C 1021.9 hPa WNW 3.2 km/h 4.8 km/h 78% 0 mm 0 W/m2
18:04 -6.8 °C -9.9 °C 1022.2 hPa WNW 3.2 km/h 3.2 km/h 79% 0 mm 0 W/m2
18:10 -6.8 °C -9.9 °C 1022.2 hPa WNW 1.6 km/h 1.6 km/h 79% 0 mm 0 W/m2
18:16 -6.8 °C -9.9 °C 1022.2 hPa WNW 1.6 km/h 1.6 km/h 79% 0 mm 0 W/m2
18:22 -6.8 °C -9.8 °C 1022.2 hPa Calm   4.8 km/h 79% 0 mm 0 W/m2
18:28 -6.7 °C -9.8 °C 1022.6 hPa Calm   4.8 km/h 79% 0 mm 0 W/m2
18:34 -6.7 °C -9.8 °C 1022.6 hPa WNW 1.6 km/h 4.8 km/h 79% 0 mm 0 W/m2
18:40 -6.7 °C -9.7 °C 1022.2 hPa WNW 1.6 km/h 1.6 km/h 79% 0 mm 0 W/m2
18:46 -6.7 °C -9.7 °C 1022.2 hPa Calm   1.6 km/h 79% 0 mm 0 W/m2
18:52 -6.6 °C -9.7 °C 1022.2 hPa Calm   1.6 km/h 79% 0 mm 0 W/m2
18:58 -6.7 °C -9.7 °C 1022.6 hPa Calm   1.6 km/h 79% 0 mm 0 W/m2
19:04 -6.6 °C -9.7 °C 1022.6 hPa Calm     79% 0 mm 0 W/m2
19:10 -6.6 °C -9.7 °C 1022.6 hPa Calm     79% 0 mm 0 W/m2
19:16 -6.6 °C -9.7 °C 1022.6 hPa WNW 1.6 km/h 1.6 km/h 79% 0 mm 0 W/m2
19:22 -6.6 °C -9.7 °C 1022.6 hPa Calm   1.6 km/h 79% 0 mm 0 W/m2
19:28 -6.7 °C -9.7 °C 1022.6 hPa Calm   1.6 km/h 79% 0 mm 0 W/m2
19:34 -6.7 °C -9.8 °C 1022.6 hPa Calm     79% 0 mm 0 W/m2
19:40 -6.8 °C -9.9 °C 1022.6 hPa Calm   1.6 km/h 79% 0 mm 0 W/m2
19:46 -6.9 °C -9.9 °C 1022.9 hPa WNW 1.6 km/h 1.6 km/h 79% 0 mm 0 W/m2
19:52 -6.9 °C -9.8 °C 1022.9 hPa Calm     80% 0 mm 0 W/m2
19:58 -7.1 °C -9.9 °C 1022.9 hPa Calm     80% 0 mm 0 W/m2
20:04 -7.1 °C -9.9 °C 1022.9 hPa Calm     80% 0 mm 0 W/m2
20:10 -7.1 °C -10 °C 1022.9 hPa Calm     80% 0 mm 0 W/m2
20:16 -7.2 °C -10.1 °C 1022.9 hPa Calm     80% 0 mm 0 W/m2
20:22 -7.3 °C -10.2 °C 1022.9 hPa Calm     80% 0 mm 0 W/m2
20:28 -7.3 °C -10.2 °C 1022.6 hPa Calm     80% 0 mm 0 W/m2
20:34 -7.4 °C -10.1 °C 1022.9 hPa Calm     81% 0 mm 0 W/m2
20:40 -7.4 °C -10.3 °C 1022.9 hPa Calm     80% 0 mm 0 W/m2
20:46 -7.4 °C -10.2 °C 1022.9 hPa Calm   1.6 km/h 81% 0 mm 0 W/m2
20:52 -7.5 °C -10.3 °C 1022.9 hPa Calm     80% 0 mm 0 W/m2
20:58 -7.4 °C -10.2 °C 1022.9 hPa Calm   1.6 km/h 81% 0 mm 0 W/m2
21:04 -7.4 °C -10.1 °C 1022.9 hPa WNW 1.6 km/h 1.6 km/h 81% 0 mm 0 W/m2
21:10 -7.4 °C -10.1 °C 1022.9 hPa WNW 1.6 km/h 3.2 km/h 81% 0 mm 0 W/m2
21:16 -7.3 °C -10.1 °C 1022.9 hPa WNW 1.6 km/h 3.2 km/h 81% 0 mm 0 W/m2
21:22 -7.3 °C -10.1 °C 1022.9 hPa SW 1.6 km/h 6.4 km/h 81% 0 mm 0 W/m2
21:28 -7.3 °C -9.9 °C 1022.9 hPa SW 3.2 km/h 6.4 km/h 82% 0 mm 0 W/m2
21:34 -7.3 °C -9.9 °C 1022.9 hPa WSW 3.2 km/h 9.7 km/h 82% 0 mm 0 W/m2
21:40 -7.2 °C -9.8 °C 1022.9 hPa SW 3.2 km/h 8 km/h 82% 0 mm 0 W/m2
21:46 -7.2 °C -9.8 °C 1022.9 hPa WSW 4.8 km/h 8 km/h 82% 0 mm 0 W/m2
21:52 -7.2 °C -9.7 °C 1022.9 hPa WSW 4.8 km/h 4.8 km/h 82% 0 mm 0 W/m2
21:58 -7.2 °C -9.7 °C 1022.9 hPa SW 3.2 km/h 9.7 km/h 82% 0 mm 0 W/m2
22:04 -7.2 °C -9.8 °C 1022.9 hPa WSW 4.8 km/h 6.4 km/h 82% 0 mm 0 W/m2
22:10 -7.2 °C -9.8 °C 1023.2 hPa WSW 3.2 km/h 3.2 km/h 82% 0 mm 0 W/m2
22:16 -7.2 °C -9.7 °C 1023.2 hPa WSW 3.2 km/h 4.8 km/h 82% 0 mm 0 W/m2
22:22 -7.2 °C -9.7 °C 1022.9 hPa WSW 1.6 km/h 3.2 km/h 82% 0 mm 0 W/m2
22:28 -7.2 °C -9.7 °C 1023.2 hPa WSW 3.2 km/h 6.4 km/h 82% 0 mm 0 W/m2
22:34 -7.1 °C -9.7 °C 1023.2 hPa SW 3.2 km/h 3.2 km/h 82% 0 mm 0 W/m2
22:40 -7.1 °C -9.7 °C 1023.2 hPa West 1.6 km/h 6.4 km/h 82% 0 mm 0 W/m2
22:46 -7.1 °C -9.6 °C 1022.9 hPa WSW 1.6 km/h 6.4 km/h 82% 0 mm 0 W/m2
22:52 -7.1 °C -9.6 °C 1022.9 hPa WSW 3.2 km/h 6.4 km/h 82% 0 mm 0 W/m2
22:58 -7.1 °C -9.6 °C 1022.9 hPa SW 3.2 km/h 8 km/h 82% 0 mm 0 W/m2
23:04 -7.1 °C -9.6 °C 1023.2 hPa WSW 3.2 km/h 6.4 km/h 82% 0 mm 0 W/m2
23:10 -7.1 °C -9.7 °C 1023.2 hPa SW 3.2 km/h 3.2 km/h 82% 0 mm 0 W/m2
23:16 -7.2 °C -9.7 °C 1023.2 hPa SW 1.6 km/h 3.2 km/h 82% 0 mm 0 W/m2
23:22 -7.2 °C -9.7 °C 1023.2 hPa WNW 1.6 km/h 4.8 km/h 82% 0 mm 0 W/m2
23:28 -7.2 °C -9.8 °C 1023.2 hPa WNW 1.6 km/h 4.8 km/h 82% 0 mm 0 W/m2
23:34 -7.3 °C -9.8 °C 1023.2 hPa WNW 1.6 km/h 3.2 km/h 82% 0 mm 0 W/m2
23:40 -7.3 °C -9.8 °C 1023.2 hPa WNW 1.6 km/h 1.6 km/h 82% 0 mm 0 W/m2
23:46 -7.3 °C -9.9 °C 1023.2 hPa Calm   1.6 km/h 82% 0 mm 0 W/m2
23:52 -7.3 °C -9.9 °C 1023.2 hPa Calm   1.6 km/h 82% 0 mm 0 W/m2
23:58 -7.3 °C -9.9 °C 1023.6 hPa WNW 1.6 km/h 3.2 km/h 82% 0 mm 0 W/m2
Country Meadow, Clay, NY, USA
Compliments of Weather Underground - 2 mb